Location: Tel Aviv
(32.0670°N, 34.7670°E)
Time: 03:35:01
(UTC+03:00)

Vanguard 2 - Pass Details

Date: 23 January 2022
Orbit: 552 x 2935 km, 32.9° (Epoch: 26 May)

Event Time Altitude Azimuth Distance (km) Brightness Sun altitude
Rises 02:46:33 0° 286° (WNW) 6,335 - -49.2°
Reaches altitude 10° 02:50:39 10° 282° (WNW) 5,512 - -48.3°
Maximum altitude 03:06:59 50° 214° (SW) 3,461 - -44.9°
Exits shadow 03:09:39 47° 192° (SSW) 3,501 10.5 -44.3°
Drops below altitude 10° 03:22:17 10° 145° (SE) 5,165 12.0 -41.6°
Sets 03:26:02 0° 140° (SE) 5,923 12.5 -40.9°
